Vorticity
5 3 6 11 12 12 8 6 9 11 9 6 6 7 8 10 10 13 18 19 20 16 10 9 8 10 13 9 7 11 11 11 9 4 7 21 38 44 27 7 2 6 7 1 -2 1 6 9 7 7 9 6 1 -3 -1 4 6 4 3 1 2 2 1 3 2 -0 -0 1 4 7 6 -4 0 10 6 8 8 4 2 0 6 1 2 7 -8 22
7 3 2 7 10 10 9 7 6 8 9 7 7 6 3 6 7 10 20 23 20 19 15 12 11 9 11 11 8 8 9 11 12 9 4 6 18 37 45 32 11 3 6 7 2 -2 0 6 6 5 8 9 7 5 1 1 1 2 4 3 3 3 3 4 2 2 1 1 7 6 5 -2 -3 9 7 6 8 5 3 0 5 3 3 7 -6 28
8 6 2 4 9 9 8 7 5 6 8 7 8 7 4 4 4 7 20 23 16 19 22 19 14 10 8 8 10 10 9 11 13 13 9 4 4 13 32 44 36 18 5 6 10 7 1 2 4 2 3 6 8 8 6 6 5 4 7 7 5 3 3 5 4 7 4 4 10 5 4 2 -4 6 9 5 7 7 5 1 3 4 4 8 -2 14
7 9 6 5 10 12 9 7 5 5 7 7 7 8 6 6 5 7 15 18 17 17 20 23 17 10 9 8 10 12 10 11 12 14 15 12 6 2 8 23 38 39 24 11 8 9 7 5 10 9 5 3 5 8 8 9 9 5 4 5 5 4 1 2 1 1 3 5 13 9 5 4 -2 5 11 6 5 6 6 2 1 3 2 7 3 1
5 7 6 5 10 13 10 7 5 5 7 7 5 6 7 9 8 7 11 14 20 19 13 19 20 15 14 11 11 12 12 12 10 11 14 16 15 8 3 4 14 29 37 32 21 13 9 4 8 14 14 8 3 3 4 6 10 9 7 4 2 1 -1 1 -1 -2 5 8 13 15 10 5 -1 4 11 7 3 4 7 5 1 2 2 4 5 2
5 5 5 4 8 13 10 6 4 2 4 3 2 4 5 9 11 7 7 11 20 25 17 16 20 19 18 16 15 14 13 13 12 12 11 12 16 15 10 5 3 8 18 30 33 28 22 13 10 13 17 19 14 8 3 -1 1 4 6 5 3 2 -0 0 -0 -0 6 7 9 14 12 5 -0 3 10 7 4 6 6 6 4 1 4 4 5 4
9 8 5 3 6 12 11 6 2 0 2 1 2 6 4 6 13 9 4 7 17 25 21 16 16 16 15 13 13 13 14 16 15 15 14 11 13 14 13 9 6 6 5 12 20 25 27 22 18 16 17 21 22 20 16 8 3 -0 -1 -1 -2 -2 -2 -1 -1 2 6 6 6 10 10 4 1 3 9 9 7 8 5 6 7 2 3 3 3 7
14 11 6 4 5 10 12 7 3 1 1 -0 -3 2 5 5 12 12 4 3 10 18 21 19 17 15 12 9 7 7 9 13 14 15 15 14 14 15 17 16 11 9 7 7 9 13 18 19 17 14 12 15 18 21 24 21 16 11 6 3 -1 -3 -3 -3 -2 1 4 5 5 10 13 5 -0 3 9 11 8 8 6 4 6 5 4 2 1 8
21 14 6 5 4 7 12 10 8 5 -1 -2 -5 -3 4 7 11 13 8 3 4 9 15 17 17 18 16 12 11 11 10 10 12 14 14 14 15 14 15 18 19 17 13 10 9 9 10 12 15 15 11 8 8 11 16 21 22 20 17 14 11 8 5 2 2 4 6 7 7 11 16 7 -2 2 8 11 9 9 8 2 4 6 5 6 0 5
26 19 10 6 5 7 11 11 10 9 4 2 2 5 9 9 10 12 9 8 9 8 9 11 13 15 15 14 16 16 15 16 14 14 14 13 13 14 13 13 15 18 18 16 15 14 12 11 12 14 16 14 11 8 7 12 17 21 22 20 17 16 14 12 9 8 7 8 9 10 12 6 -0 3 7 11 10 9 9 3 4 4 3 9 2 1
28 26 17 8 6 7 9 12 11 7 8 7 5 9 11 4 4 12 10 9 13 12 9 9 9 9 9 10 12 13 13 14 13 12 14 13 14 15 16 16 13 11 13 14 15 17 18 19 17 15 16 16 17 16 12 8 9 13 18 20 20 19 19 18 15 14 11 9 10 7 4 5 4 4 7 11 10 10 11 6 5 5 2 7 5 2
28 34 28 12 8 10 8 12 12 7 7 9 8 10 11 4 4 13 10 5 10 12 11 11 9 8 9 8 8 9 10 10 11 12 12 12 13 14 15 17 18 16 13 11 11 11 11 13 17 19 18 17 16 18 19 17 12 9 11 13 15 15 16 19 18 17 14 11 12 10 4 4 8 8 7 10 11 10 12 8 6 6 2 4 7 8
22 35 36 17 7 10 8 8 11 12 9 9 14 14 10 7 9 12 9 6 9 9 11 13 9 10 11 8 6 5 4 4 6 8 11 13 13 13 14 14 18 22 23 22 16 12 9 6 7 10 14 17 16 15 16 18 19 16 13 11 11 10 9 12 16 16 15 12 11 12 7 4 11 14 8 9 11 9 11 11 7 6 3 5 6 5
15 29 36 23 10 8 7 7 8 13 13 9 10 10 6 5 7 9 10 14 14 7 8 11 8 9 9 5 2 0 2 6 8 10 12 13 12 12 13 12 13 15 21 29 28 22 15 10 7 6 6 9 12 14 12 12 17 19 19 18 18 17 13 10 12 13 13 11 11 16 13 6 12 18 12 8 10 9 9 10 9 7 4 4 3 -7
16 22 28 25 15 6 3 6 7 11 13 9 0 -1 4 5 4 4 6 12 14 8 8 8 5 7 7 4 -0 0 7 10 11 12 8 6 7 9 11 13 15 13 12 20 28 31 26 18 12 8 7 7 5 8 10 9 11 12 14 15 16 20 21 19 19 19 19 13 9 16 18 10 9 16 18 13 9 9 8 8 9 9 5 4 6 -2
17 18 23 24 15 7 5 5 6 8 11 11 1 -7 -0 4 2 2 3 5 10 11 10 9 6 5 5 6 1 2 10 11 9 9 7 8 7 6 9 12 16 16 13 12 17 25 29 27 22 14 10 10 7 6 7 7 9 8 8 9 9 12 14 16 18 20 25 22 12 12 14 14 11 8 15 17 11 8 7 7 7 8 8 5 6 11
19 14 19 24 18 10 9 5 4 4 6 17 16 2 0 3 0 2 3 3 8 11 11 12 11 7 5 7 4 3 8 9 9 7 6 9 7 3 5 7 9 11 12 14 15 17 22 26 28 24 17 12 10 10 8 7 8 8 8 8 7 8 8 10 13 13 18 24 25 16 5 11 19 11 7 15 18 12 8 7 7 7 9 7 3 3
25 19 14 22 24 15 7 2 4 3 1 15 20 8 4 5 2 4 4 4 6 8 11 15 15 11 9 8 5 4 6 7 8 8 5 5 4 3 3 4 5 6 9 15 18 18 19 19 21 23 25 22 14 10 11 11 9 7 9 9 7 8 7 6 11 17 16 13 22 21 3 2 18 18 8 10 18 14 8 7 6 7 9 10 9 3
25 26 16 17 23 22 12 2 2 4 2 7 7 3 6 5 1 3 5 4 4 4 8 11 11 11 12 11 7 4 5 5 6 8 8 6 7 7 6 5 5 5 8 13 18 22 23 22 18 12 17 25 25 18 11 11 12 11 10 10 10 9 8 4 7 19 23 13 12 20 12 1 10 21 15 10 13 13 9 7 6 7 8 9 11 9
18 24 21 17 18 22 21 10 3 5 4 2 1 4 8 3 -2 2 5 4 3 3 6 6 6 10 13 13 10 6 5 6 6 10 10 9 10 12 11 8 6 8 12 13 16 20 22 27 27 18 11 14 25 30 21 11 10 12 11 11 12 10 7 6 6 13 24 19 12 17 16 8 13 26 25 14 7 8 10 9 7 8 7 9 9 7
12 18 23 23 17 18 22 17 9 6 3 2 4 5 4 -1 -2 1 3 3 3 2 4 5 5 7 10 10 9 6 5 5 7 7 4 3 6 9 9 7 6 11 18 18 16 16 15 17 21 22 19 13 15 26 31 22 9 9 13 10 11 14 10 8 5 10 21 20 15 18 13 5 9 19 26 22 9 4 11 11 8 9 7 8 9 7
9 14 22 26 21 17 20 19 12 8 4 4 7 6 2 -0 1 2 1 3 5 4 5 7 2 -1 5 7 6 6 3 2 6 5 -0 -1 2 4 3 4 9 17 22 20 18 16 14 12 11 13 17 18 15 16 28 34 18 8 13 13 11 13 13 11 4 5 19 21 18 19 10 0 4 9 14 22 16 5 9 13 11 10 8 7 8 6
7 11 19 28 27 19 18 19 14 10 7 6 7 6 5 4 3 3 2 3 6 5 5 8 2 -1 5 5 3 5 3 1 5 4 1 0 2 2 1 6 14 18 20 20 19 17 13 12 12 11 11 13 15 13 20 34 31 16 11 15 17 13 12 13 6 6 22 26 22 20 8 -1 8 14 14 19 20 11 9 13 13 10 7 7 8 5
8 11 17 28 32 23 18 17 14 11 9 6 6 5 5 5 4 4 3 2 5 3 1 6 4 2 6 4 2 4 2 1 4 3 3 3 3 3 4 9 14 14 16 19 18 17 14 13 14 15 14 11 10 9 9 20 32 29 17 13 17 17 14 11 8 12 26 31 26 18 8 5 16 25 23 22 23 18 14 13 11 10 8 6 7 7
8 11 15 25 33 29 22 18 14 13 11 8 8 6 5 6 5 5 3 1 5 4 -0 6 7 2 5 5 3 3 1 2 5 5 6 5 3 4 4 9 13 13 15 17 18 17 15 14 16 20 25 26 24 21 17 16 23 30 28 20 16 18 16 11 8 17 30 34 26 14 7 15 30 36 29 23 27 25 18 15 11 8 9 6 6 9
7 10 13 22 31 32 25 18 15 14 13 11 9 7 6 7 5 5 4 3 8 7 2 8 10 5 6 5 2 3 3 4 8 8 8 8 5 4 6 11 14 14 16 15 17 18 14 15 26 32 29 25 25 25 25 26 26 27 29 26 21 20 18 12 8 16 29 31 24 16 -4 -24 -12 20 31 24 27 30 21 14 12 8 7 7 6 7
8 8 10 16 26 30 25 18 14 14 15 14 12 9 9 10 10 10 10 8 10 8 3 9 13 10 9 6 2 2 2 5 10 10 10 11 7 3 8 15 15 14 16 15 14 16 14 15 25 31 22 8 5 8 11 20 29 31 30 26 22 22 22 15 8 14 27 27 21 22 -0 -41 -42 3 30 23 22 28 23 14 13 10 7 7 7 6
8 7 8 12 19 26 26 19 13 13 14 14 14 13 10 11 11 12 12 10 11 12 9 12 16 14 13 9 3 3 2 4 9 9 9 11 6 1 7 16 15 13 14 15 13 13 15 16 19 22 18 9 7 9 9 14 23 30 34 29 20 19 24 19 9 11 23 25 19 19 16 3 -0 11 18 17 20 26 23 16 13 11 9 6 6 7
8 7 7 9 14 21 27 25 16 12 12 12 14 15 13 12 12 13 15 14 13 15 15 15 15 13 12 9 4 4 4 5 8 8 8 9 4 1 5 12 15 15 14 12 12 15 19 20 19 18 19 19 17 15 20 27 29 27 33 35 22 14 21 21 13 11 17 20 18 17 19 22 20 13 8 12 19 25 23 17 13 12 9 7 6 6
8 7 7 9 10 14 21 25 23 20 18 16 16 17 18 18 17 19 20 18 17 17 17 16 15 13 12 9 6 7 7 7 8 7 7 7 5 2 5 13 18 18 14 9 12 22 22 13 10 14 23 30 26 20 28 35 31 25 32 39 28 14 18 22 15 10 13 15 15 16 20 20 14 9 8 10 14 23 25 18 14 12 9 7 6 5
8 6 8 7 7 9 12 14 18 21 22 21 19 19 20 20 19 20 19 17 18 18 16 16 15 15 17 15 12 12 11 11 9 6 7 8 6 2 3 15 25 19 10 9 16 26 21 8 9 20 34 44 39 33 38 33 21 21 33 42 34 17 15 22 19 11 10 13 13 13 19 20 11 5 5 7 11 19 24 22 15 12 10 7 6 5
8 7 7 5 4 7 9 8 10 14 17 19 18 17 17 16 15 14 12 14 16 14 13 15 14 14 17 18 19 17 14 12 9 7 8 7 6 4 3 15 27 18 8 11 20 23 16 8 13 21 30 42 42 37 40 33 20 19 30 42 39 23 15 19 20 15 11 12 13 13 17 17 10 5 5 6 10 14 20 25 19 12 10 8 6 6
8 7 6 5 5 6 7 7 7 9 10 12 13 13 13 14 14 10 9 13 14 12 13 14 12 12 14 17 22 20 16 14 10 9 9 6 6 6 3 15 28 18 6 11 18 18 10 6 14 20 22 32 38 33 30 30 28 26 33 46 43 25 17 19 19 17 13 12 14 16 20 19 10 5 5 4 8 14 17 23 22 15 11 9 6 5
8 8 7 7 7 7 6 5 6 7 7 7 9 11 10 11 13 9 8 12 11 10 13 13 11 13 15 18 22 22 20 16 11 9 9 7 6 3 4 20 30 15 5 10 14 12 8 8 16 20 16 22 35 39 34 36 40 37 38 46 42 25 17 18 20 19 12 8 13 17 22 23 10 1 3 4 6 13 16 20 24 19 13 9 7 6
7 8 9 7 5 6 6 5 5 6 6 4 6 8 8 9 11 7 6 8 8 10 13 12 12 16 17 16 15 17 19 15 10 9 9 7 6 3 8 25 29 13 4 9 12 11 11 11 16 19 16 16 27 38 38 35 36 35 33 33 30 26 25 22 18 19 14 8 10 15 20 23 13 2 1 3 3 9 14 18 23 22 17 12 9 7
9 9 10 7 5 7 7 5 5 6 6 5 6 7 6 7 8 7 7 7 7 10 11 10 12 16 17 14 12 15 19 18 14 11 9 8 6 6 14 26 25 12 5 9 13 13 12 12 14 17 17 14 18 28 32 28 24 27 32 31 25 20 20 21 18 15 13 11 8 10 16 21 17 7 1 2 3 5 8 13 20 25 21 15 11 9
8 9 11 9 6 7 7 5 5 6 5 5 7 7 6 6 6 7 7 6 7 9 8 8 11 14 15 14 14 16 19 21 20 14 9 8 6 11 22 25 20 13 6 8 12 10 12 15 13 15 20 17 15 20 25 27 23 17 20 27 33 31 22 20 23 18 12 10 9 8 11 17 20 13 4 2 3 3 4 6 12 22 25 19 14 11
7 9 11 9 7 7 8 6 6 6 5 5 8 8 7 7 7 6 7 6 7 8 7 7 10 12 13 16 17 18 18 22 23 16 11 9 6 19 34 25 16 15 7 6 10 7 13 17 8 12 26 22 14 14 16 24 27 19 13 11 19 32 34 28 25 20 12 9 9 8 9 13 19 18 10 5 4 2 3 3 4 14 22 21 18 14
8 9 10 10 9 7 7 7 6 7 7 6 7 8 9 8 7 8 9 6 6 8 7 7 9 9 11 14 16 18 19 22 23 16 13 9 5 24 43 26 13 17 8 5 11 9 14 17 3 9 26 19 11 16 17 25 33 28 24 22 15 17 24 23 19 13 7 6 7 8 8 9 14 18 14 10 8 5 3 3 4 9 17 20 19 18
10 9 9 11 10 7 9 8 5 6 8 6 5 8 9 9 7 9 10 7 7 8 6 7 8 7 9 12 14 16 17 20 22 17 14 10 3 19 39 25 14 21 14 6 10 9 15 19 5 6 23 17 11 19 21 26 34 24 14 20 21 13 11 16 20 17 11 8 8 8 8 7 10 15 15 13 10 6 4 4 5 6 12 17 18 19
10 9 9 11 9 7 10 10 7 7 7 4 5 7 8 9 9 9 10 8 9 8 6 8 9 6 7 9 11 15 14 14 18 16 14 12 4 11 30 24 12 18 17 8 7 7 16 22 6 -2 13 17 12 17 20 23 29 23 10 8 12 11 10 13 19 20 16 12 11 10 9 8 7 10 15 20 18 11 4 4 7 6 6 11 16 20
10 10 10 10 10 10 10 10 10 11 8 4 5 8 8 10 10 9 10 9 9 9 7 8 9 7 7 8 9 13 13 10 14 16 15 15 6 6 24 28 15 13 17 12 6 7 15 20 9 -6 -2 10 16 17 17 19 23 22 19 17 16 16 16 16 19 22 22 21 20 19 17 15 11 7 9 17 25 24 14 5 4 6 4 5 12 19
11 11 10 9 11 11 10 10 11 12 9 7 7 8 9 10 10 9 10 9 8 9 8 8 8 7 7 7 7 10 12 10 11 13 14 17 11 4 15 30 23 12 15 17 11 9 14 16 13 6 -5 -4 13 22 18 18 20 18 16 16 15 14 14 15 17 18 19 20 20 20 19 19 18 17 14 13 18 25 27 18 8 6 5 3 7 16
12 11 11 10 11 11 10 11 12 11 9 8 8 9 9 9 9 8 8 8 8 9 9 7 8 8 6 7 7 8 10 11 10 12 13 16 16 8 8 26 32 16 12 19 14 9 14 11 10 18 10 -9 -4 13 19 18 19 20 17 13 11 12 11 10 12 14 15 17 17 16 16 15 15 18 22 23 20 18 22 26 21 12 8 5 4 11
10 11 11 10 10 10 10 12 12 10 10 9 8 9 9 8 8 7 6 7 7 8 8 7 8 9 7 7 8 7 9 10 9 11 12 12 16 14 5 16 33 25 14 19 17 11 15 13 5 12 17 4 -5 -1 7 14 16 16 18 17 14 13 11 10 13 14 11 12 14 16 17 17 16 16 16 22 29 26 18 19 23 22 16 10 6 9
9 11 12 10 10 10 11 13 12 9 10 10 8 9 9 6 7 6 5 6 7 7 8 7 8 9 7 7 8 7 7 10 8 10 12 9 12 18 9 7 24 29 18 16 18 13 11 12 12 10 6 8 12 7 3 8 11 9 13 17 15 13 13 13 12 11 12 17 19 20 23 23 19 17 15 13 17 24 22 17 17 21 23 18 12 10
9 12 12 10 10 11 10 13 12 9 10 10 8 9 8 5 5 7 6 6 7 7 8 8 7 9 8 6 8 7 6 9 8 8 11 10 9 15 16 9 13 26 26 17 15 15 11 9 17 22 10 2 9 14 9 7 7 5 8 11 9 11 14 15 16 21 24 22 14 14 28 39 33 21 18 17 11 9 13 16 15 16 22 25 19 14
9 10 11 9 9 9 9 11 12 10 10 10 8 8 6 4 5 6 6 7 8 7 8 8 7 9 9 7 7 8 6 7 9 7 8 11 9 10 16 14 10 17 28 26 14 12 16 14 14 22 21 6 -3 2 8 9 8 6 5 4 3 5 7 11 18 20 10 1 4 11 24 49 66 53 27 17 19 13 6 8 12 14 20 26 26 20
11 9 9 9 8 8 8 11 12 11 10 9 8 6 5 4 6 7 7 8 9 8 7 8 7 8 9 8 6 8 7 6 8 7 6 9 10 9 11 16 14 11 18 29 25 14 12 16 15 17 19 11 0 2 10 12 9 6 4 4 4 4 4 6 10 11 -0 -7 6 13 4 17 59 77 51 24 22 27 19 10 10 15 19 24 28 25
12 9 9 10 9 9 10 11 11 11 10 10 8 6 6 6 7 8 9 9 10 9 8 9 8 7 9 9 7 7 9 8 7 8 7 6 9 10 9 11 16 14 11 18 27 25 17 14 14 17 20 17 11 13 16 13 10 9 10 9 6 6 9 7 3 7 10 3 1 9 11 11 26 51 59 44 26 25 29 24 19 18 18 20 26 28
10 9 10 11 10 11 12 12 12 12 11 11 10 8 7 8 8 9 10 10 10 10 9 8 9 8 7 9 8 7 8 9 8 7 7 6 7 9 11 9 11 16 15 12 16 24 26 21 14 14 19 21 17 14 14 12 10 11 13 13 9 7 10 9 4 7 12 7 -3 -1 14 20 7 5 31 50 39 26 31 35 29 24 23 23 26 27
Height
5722 5720 5719 5717 5715 5714 5713 5713 5712 5709 5707 5705 5704 5702 5701 5700 5697 5695 5693 5692 5693 5693 5692 5692 5693 5693 5690 5689 5690 5691 5692 5693 5694 5696 5698 5700 5703 5705 5706 5707 5708 5709 5710 5712 5713 5715 5720 5725 5729 5730 5733 5736 5739 5742 5745 5749 5753 5755 5757 5759 5762 5765 5767 5770 5773 5776 5779 5782 5785 5787 5789 5791 5794 5795 5797 5800 5802 5804 5806 5807 5809 5811 5813 5815 5818 5820
5721 5719 5718 5716 5714 5713 5712 5711 5710 5708 5706 5704 5702 5700 5699 5698 5695 5693 5691 5690 5690 5690 5690 5689 5691 5689 5687 5687 5689 5690 5690 5691 5692 5694 5695 5697 5699 5702 5703 5704 5705 5706 5708 5709 5710 5711 5714 5719 5724 5726 5728 5731 5734 5737 5740 5744 5748 5751 5754 5756 5758 5760 5762 5765 5768 5772 5775 5778 5782 5783 5785 5787 5790 5791 5793 5797 5799 5801 5802 5803 5806 5808 5810 5812 5815 5816
5719 5718 5716 5715 5713 5711 5710 5709 5707 5705 5704 5702 5700 5699 5698 5696 5695 5691 5689 5687 5687 5688 5688 5688 5688 5685 5684 5686 5687 5688 5689 5690 5691 5692 5693 5694 5696 5698 5700 5702 5703 5704 5705 5706 5707 5709 5710 5713 5718 5722 5724 5727 5730 5733 5736 5739 5743 5747 5750 5752 5754 5755 5758 5760 5762 5766 5770 5774 5777 5779 5780 5783 5786 5787 5789 5793 5795 5797 5798 5800 5802 5805 5807 5809 5812 5814
5717 5716 5715 5713 5712 5710 5708 5706 5705 5704 5703 5701 5699 5698 5697 5696 5694 5692 5688 5685 5685 5686 5686 5686 5685 5683 5683 5685 5686 5687 5688 5688 5689 5690 5691 5692 5693 5695 5697 5698 5700 5702 5702 5703 5704 5706 5707 5709 5711 5715 5719 5721 5725 5728 5731 5734 5738 5741 5745 5747 5749 5751 5753 5755 5757 5760 5765 5768 5772 5775 5776 5778 5782 5784 5785 5789 5792 5794 5796 5798 5800 5802 5804 5807 5810 5812
5714 5714 5713 5712 5710 5708 5706 5704 5703 5702 5701 5700 5699 5697 5696 5694 5693 5691 5689 5685 5684 5685 5685 5684 5683 5682 5682 5684 5684 5685 5686 5686 5686 5687 5689 5690 5691 5692 5694 5695 5697 5699 5700 5701 5702 5703 5704 5705 5706 5709 5712 5716 5719 5722 5726 5729 5732 5736 5739 5741 5743 5746 5748 5750 5752 5755 5759 5763 5767 5770 5772 5774 5778 5780 5781 5785 5789 5791 5794 5797 5798 5800 5803 5805 5808 5809
5712 5712 5711 5710 5709 5707 5705 5703 5702 5700 5699 5699 5698 5697 5695 5694 5692 5690 5688 5686 5685 5685 5684 5683 5682 5681 5681 5681 5682 5683 5683 5683 5683 5684 5686 5687 5688 5689 5691 5692 5694 5696 5697 5699 5700 5701 5701 5701 5702 5703 5706 5709 5712 5715 5719 5722 5725 5729 5732 5734 5736 5739 5742 5744 5747 5749 5752 5757 5761 5765 5767 5770 5774 5777 5778 5781 5786 5789 5792 5794 5796 5798 5800 5803 5805 5806
5710 5709 5708 5708 5707 5705 5703 5702 5701 5700 5699 5698 5697 5696 5694 5693 5691 5689 5688 5686 5684 5684 5683 5682 5681 5680 5680 5679 5679 5680 5679 5680 5680 5681 5682 5684 5685 5686 5688 5689 5690 5692 5694 5695 5697 5698 5698 5698 5698 5699 5700 5702 5706 5708 5712 5715 5719 5722 5725 5728 5730 5733 5736 5738 5741 5743 5746 5750 5755 5759 5763 5766 5769 5773 5774 5777 5781 5785 5787 5790 5791 5794 5796 5800 5802 5803
5707 5707 5706 5706 5705 5704 5702 5701 5700 5699 5697 5697 5696 5695 5694 5692 5690 5689 5687 5686 5684 5683 5683 5682 5680 5679 5679 5678 5678 5678 5678 5678 5679 5679 5680 5681 5682 5683 5685 5686 5687 5688 5689 5691 5693 5694 5695 5695 5695 5695 5695 5697 5699 5701 5705 5708 5712 5715 5717 5720 5723 5726 5729 5732 5733 5736 5740 5744 5748 5753 5757 5761 5765 5768 5770 5772 5776 5780 5783 5785 5787 5789 5792 5796 5798 5800
5705 5704 5703 5703 5703 5702 5701 5699 5699 5697 5696 5695 5695 5694 5693 5691 5690 5688 5687 5685 5684 5683 5682 5681 5680 5679 5678 5677 5677 5677 5677 5677 5678 5678 5679 5679 5680 5681 5682 5683 5684 5685 5686 5687 5688 5690 5691 5691 5692 5692 5692 5692 5693 5695 5698 5701 5705 5708 5710 5713 5716 5719 5722 5725 5727 5729 5734 5737 5741 5746 5751 5757 5760 5763 5766 5768 5771 5776 5779 5781 5783 5785 5788 5792 5794 5796
5703 5701 5701 5701 5701 5700 5699 5698 5697 5696 5695 5694 5693 5693 5692 5690 5689 5687 5686 5685 5684 5682 5681 5681 5680 5679 5678 5677 5677 5677 5677 5676 5676 5677 5677 5677 5677 5678 5678 5679 5679 5680 5681 5682 5683 5685 5686 5686 5687 5688 5688 5688 5689 5690 5692 5694 5698 5701 5703 5705 5708 5712 5715 5718 5720 5722 5726 5730 5734 5740 5745 5751 5755 5758 5761 5764 5767 5771 5775 5778 5780 5783 5785 5788 5791 5793
5701 5699 5698 5698 5698 5698 5697 5696 5695 5694 5694 5693 5692 5691 5690 5689 5687 5686 5685 5684 5683 5681 5680 5680 5679 5678 5677 5677 5677 5676 5676 5675 5675 5674 5674 5673 5673 5673 5673 5674 5674 5674 5675 5676 5677 5679 5680 5681 5682 5683 5683 5684 5684 5685 5686 5688 5691 5694 5697 5699 5701 5705 5708 5710 5713 5716 5720 5723 5728 5734 5739 5745 5749 5753 5757 5759 5762 5766 5770 5774 5777 5780 5782 5784 5787 5790
5699 5697 5696 5696 5696 5695 5695 5694 5693 5693 5692 5692 5691 5690 5688 5687 5685 5684 5684 5683 5682 5681 5680 5679 5678 5677 5676 5676 5675 5675 5674 5674 5673 5673 5672 5671 5671 5670 5670 5670 5669 5669 5669 5670 5671 5672 5673 5675 5676 5677 5678 5679 5679 5680 5681 5683 5685 5687 5690 5692 5695 5699 5701 5703 5706 5710 5713 5716 5721 5726 5731 5738 5743 5746 5751 5755 5757 5761 5765 5769 5773 5776 5778 5780 5784 5787
5696 5695 5694 5693 5693 5693 5693 5692 5691 5691 5690 5690 5690 5688 5687 5686 5685 5684 5683 5682 5681 5680 5679 5678 5677 5676 5675 5675 5674 5674 5673 5672 5672 5671 5670 5670 5669 5668 5668 5667 5666 5666 5665 5665 5665 5666 5667 5668 5669 5670 5672 5673 5674 5675 5675 5677 5679 5681 5683 5686 5690 5692 5694 5696 5699 5703 5706 5709 5715 5719 5723 5731 5736 5739 5744 5749 5752 5755 5759 5763 5767 5771 5774 5776 5780 5783
5694 5693 5692 5691 5691 5691 5691 5690 5690 5689 5689 5689 5688 5687 5686 5686 5685 5684 5682 5681 5680 5678 5677 5676 5676 5675 5674 5673 5673 5672 5672 5671 5670 5669 5668 5667 5667 5666 5665 5664 5663 5662 5661 5661 5661 5661 5661 5662 5662 5663 5665 5666 5668 5669 5670 5671 5673 5675 5677 5680 5683 5686 5687 5689 5692 5696 5700 5703 5708 5712 5715 5722 5727 5731 5737 5742 5745 5749 5752 5757 5761 5766 5769 5772 5776 5779
5692 5690 5690 5689 5689 5689 5689 5689 5688 5687 5687 5687 5686 5685 5685 5684 5683 5682 5681 5680 5678 5677 5675 5675 5674 5673 5672 5672 5672 5671 5670 5669 5669 5668 5666 5666 5665 5664 5663 5662 5660 5658 5657 5656 5656 5656 5655 5655 5656 5656 5657 5658 5660 5661 5663 5665 5666 5669 5671 5673 5676 5679 5681 5683 5685 5690 5693 5696 5701 5705 5708 5713 5719 5723 5728 5734 5738 5741 5746 5750 5755 5760 5763 5766 5769 5772
5691 5689 5688 5687 5687 5688 5688 5687 5687 5686 5686 5686 5685 5684 5683 5682 5681 5680 5679 5678 5677 5676 5674 5673 5672 5672 5671 5670 5670 5669 5668 5667 5666 5665 5663 5662 5662 5661 5660 5658 5657 5655 5653 5651 5651 5650 5650 5649 5649 5649 5650 5651 5652 5654 5655 5657 5659 5661 5664 5666 5669 5672 5674 5677 5679 5683 5686 5688 5693 5697 5699 5703 5709 5714 5719 5726 5730 5735 5739 5744 5749 5753 5756 5759 5762 5765
5691 5688 5687 5686 5686 5686 5686 5686 5685 5685 5684 5684 5683 5683 5682 5681 5680 5678 5677 5677 5676 5675 5673 5672 5671 5670 5669 5668 5668 5667 5666 5664 5662 5661 5660 5658 5658 5657 5655 5653 5652 5651 5649 5647 5646 5645 5644 5643 5643 5643 5643 5644 5645 5646 5648 5650 5652 5654 5656 5659 5662 5665 5667 5670 5672 5675 5679 5681 5685 5689 5691 5695 5700 5705 5711 5718 5723 5727 5732 5737 5742 5746 5749 5753 5758 5763
5690 5687 5685 5685 5684 5684 5684 5684 5684 5683 5682 5682 5681 5681 5680 5679 5678 5677 5676 5675 5674 5673 5672 5670 5669 5668 5667 5666 5665 5664 5662 5660 5659 5657 5656 5655 5653 5652 5650 5648 5646 5645 5644 5643 5641 5640 5638 5637 5637 5637 5637 5637 5638 5639 5641 5643 5644 5646 5649 5651 5654 5657 5659 5662 5664 5667 5671 5673 5676 5680 5683 5688 5692 5696 5701 5708 5714 5719 5724 5729 5735 5739 5743 5748 5753 5758
5689 5687 5684 5683 5683 5682 5682 5682 5682 5681 5680 5680 5679 5679 5678 5677 5677 5676 5675 5673 5672 5671 5670 5669 5667 5665 5664 5664 5662 5661 5659 5657 5657 5656 5654 5651 5649 5648 5646 5643 5641 5639 5638 5636 5635 5634 5633 5632 5631 5630 5630 5630 5631 5631 5633 5635 5636 5638 5641 5644 5646 5649 5652 5654 5657 5659 5663 5666 5669 5672 5676 5680 5684 5688 5692 5697 5704 5711 5716 5723 5729 5733 5738 5743 5747 5752
5688 5686 5683 5681 5681 5680 5679 5679 5679 5679 5678 5677 5677 5677 5676 5676 5675 5674 5673 5671 5669 5668 5667 5667 5665 5662 5661 5661 5659 5657 5656 5654 5654 5653 5652 5650 5647 5645 5642 5640 5638 5635 5632 5630 5628 5627 5626 5626 5625 5624 5623 5623 5623 5623 5624 5626 5628 5630 5632 5635 5638 5642 5644 5647 5649 5652 5655 5658 5662 5666 5669 5673 5676 5679 5684 5689 5695 5702 5709 5716 5722 5726 5732 5737 5742 5747
5687 5684 5682 5680 5678 5677 5677 5677 5676 5676 5675 5675 5674 5675 5674 5674 5673 5672 5670 5669 5668 5666 5664 5664 5663 5660 5658 5657 5656 5654 5653 5651 5649 5649 5648 5646 5644 5641 5638 5635 5633 5631 5627 5624 5622 5620 5619 5619 5618 5618 5617 5616 5616 5615 5616 5617 5619 5621 5624 5627 5630 5633 5636 5639 5642 5645 5647 5650 5654 5659 5662 5666 5669 5673 5677 5682 5687 5695 5703 5710 5716 5721 5726 5731 5736 5742
5685 5683 5680 5678 5676 5675 5674 5674 5673 5673 5673 5672 5672 5672 5672 5671 5670 5669 5668 5667 5666 5664 5662 5661 5661 5659 5656 5655 5653 5652 5650 5648 5645 5643 5642 5641 5639 5636 5633 5630 5627 5624 5621 5619 5616 5614 5613 5612 5611 5611 5610 5610 5609 5608 5608 5609 5611 5613 5615 5618 5621 5624 5628 5631 5633 5636 5638 5641 5646 5651 5655 5659 5664 5667 5671 5675 5680 5688 5696 5704 5710 5715 5720 5726 5731 5736
5684 5681 5678 5676 5674 5673 5672 5671 5671 5670 5670 5670 5670 5670 5670 5669 5668 5667 5666 5665 5663 5662 5661 5659 5658 5657 5654 5653 5651 5650 5648 5645 5642 5638 5636 5635 5633 5630 5627 5625 5622 5618 5615 5613 5612 5610 5608 5607 5606 5604 5603 5602 5601 5600 5600 5601 5602 5605 5607 5609 5612 5616 5619 5623 5625 5628 5630 5633 5639 5645 5649 5654 5659 5663 5666 5669 5674 5681 5691 5699 5704 5709 5715 5721 5726 5731
5682 5680 5677 5674 5672 5670 5669 5669 5668 5668 5667 5668 5668 5668 5668 5667 5666 5664 5663 5662 5661 5659 5658 5656 5656 5655 5652 5650 5649 5647 5645 5643 5639 5635 5632 5630 5627 5625 5622 5619 5616 5613 5611 5609 5607 5605 5603 5601 5599 5598 5596 5595 5593 5592 5592 5593 5594 5596 5599 5601 5604 5607 5611 5614 5617 5620 5622 5626 5633 5639 5644 5649 5653 5657 5661 5666 5671 5677 5685 5692 5697 5703 5710 5715 5720 5726
5682 5679 5676 5673 5670 5668 5667 5667 5667 5666 5666 5666 5665 5665 5665 5665 5664 5662 5660 5659 5658 5657 5656 5654 5654 5653 5649 5646 5645 5643 5641 5640 5638 5634 5631 5627 5623 5620 5618 5615 5612 5609 5607 5604 5602 5599 5597 5595 5593 5591 5589 5588 5587 5585 5585 5586 5587 5588 5590 5593 5596 5599 5603 5607 5610 5612 5614 5620 5627 5633 5639 5644 5648 5652 5657 5663 5669 5675 5680 5685 5690 5697 5704 5709 5715 5721
5681 5679 5676 5672 5669 5667 5666 5666 5665 5665 5664 5664 5663 5662 5662 5662 5661 5659 5658 5656 5655 5655 5654 5651 5650 5651 5649 5644 5642 5640 5638 5637 5636 5633 5630 5627 5623 5619 5615 5612 5609 5606 5602 5598 5596 5594 5591 5589 5587 5584 5582 5581 5580 5579 5579 5578 5579 5580 5582 5585 5588 5592 5596 5599 5602 5605 5608 5613 5620 5627 5633 5638 5643 5648 5654 5659 5666 5671 5676 5679 5683 5691 5698 5704 5710 5715
5680 5678 5675 5672 5669 5667 5666 5665 5664 5663 5663 5662 5661 5660 5660 5659 5658 5657 5655 5653 5652 5651 5651 5649 5646 5647 5646 5643 5640 5638 5635 5634 5632 5630 5627 5625 5623 5619 5615 5610 5605 5601 5597 5593 5590 5588 5585 5583 5581 5579 5577 5576 5574 5573 5572 5572 5572 5573 5574 5577 5580 5584 5589 5593 5596 5599 5603 5608 5614 5621 5627 5633 5639 5645 5651 5656 5661 5667 5671 5674 5678 5684 5692 5698 5703 5709
5679 5677 5674 5672 5669 5667 5665 5664 5663 5662 5661 5660 5659 5659 5658 5656 5655 5654 5652 5651 5650 5648 5648 5646 5643 5642 5641 5639 5635 5633 5631 5629 5628 5625 5622 5619 5617 5614 5610 5606 5601 5597 5593 5589 5586 5583 5580 5578 5576 5574 5572 5571 5568 5566 5565 5564 5564 5565 5567 5569 5572 5576 5581 5586 5590 5594 5598 5603 5608 5616 5623 5630 5636 5642 5647 5651 5656 5660 5665 5669 5673 5678 5685 5691 5697 5703
5679 5676 5674 5672 5669 5667 5665 5663 5662 5661 5660 5659 5658 5657 5656 5654 5653 5652 5651 5649 5648 5646 5644 5644 5642 5639 5636 5633 5631 5628 5626 5624 5622 5619 5617 5614 5611 5608 5603 5599 5596 5593 5589 5586 5583 5580 5577 5574 5572 5570 5567 5564 5562 5559 5557 5556 5556 5557 5559 5562 5564 5569 5575 5580 5585 5589 5594 5599 5605 5612 5620 5626 5632 5637 5641 5646 5650 5655 5660 5665 5669 5673 5679 5685 5691 5697
5678 5676 5674 5672 5670 5667 5665 5663 5661 5660 5658 5657 5656 5655 5654 5652 5651 5650 5649 5648 5646 5644 5642 5641 5640 5637 5632 5628 5627 5625 5622 5620 5617 5615 5613 5610 5607 5603 5599 5595 5592 5589 5586 5583 5581 5578 5575 5571 5569 5565 5561 5557 5553 5551 5549 5548 5548 5549 5552 5554 5557 5562 5568 5574 5580 5585 5591 5596 5603 5610 5616 5622 5627 5631 5636 5641 5646 5651 5656 5660 5664 5669 5673 5679 5686 5691
5678 5676 5673 5672 5670 5667 5665 5663 5661 5659 5658 5656 5655 5654 5653 5651 5650 5648 5647 5646 5644 5642 5640 5638 5637 5635 5631 5627 5624 5622 5620 5618 5614 5611 5610 5607 5604 5601 5597 5594 5591 5587 5584 5581 5578 5575 5572 5568 5565 5560 5554 5549 5545 5543 5542 5542 5542 5544 5546 5549 5552 5557 5563 5569 5576 5581 5588 5594 5600 5606 5612 5617 5622 5626 5631 5637 5642 5648 5652 5656 5660 5664 5669 5674 5680 5685
5677 5675 5673 5672 5669 5667 5665 5663 5661 5659 5658 5656 5654 5653 5652 5650 5649 5646 5645 5644 5642 5640 5638 5636 5634 5632 5630 5627 5625 5621 5617 5615 5611 5607 5606 5605 5603 5599 5596 5592 5589 5585 5581 5578 5575 5572 5569 5565 5561 5556 5550 5544 5540 5538 5537 5537 5538 5540 5542 5544 5548 5553 5559 5566 5572 5579 5585 5592 5597 5602 5607 5613 5618 5623 5627 5632 5638 5643 5648 5651 5655 5659 5664 5668 5674 5679
5677 5675 5673 5671 5669 5666 5664 5663 5661 5659 5657 5656 5654 5652 5651 5649 5648 5645 5643 5642 5641 5638 5636 5634 5631 5629 5627 5625 5623 5620 5616 5612 5609 5605 5603 5601 5600 5597 5593 5588 5585 5582 5578 5575 5573 5570 5566 5563 5558 5553 5547 5542 5538 5536 5535 5535 5536 5537 5538 5541 5545 5551 5557 5564 5570 5577 5583 5589 5594 5599 5604 5609 5615 5619 5624 5628 5633 5638 5642 5646 5650 5655 5660 5664 5668 5673
5676 5674 5673 5671 5668 5665 5664 5662 5660 5659 5657 5655 5654 5652 5650 5649 5647 5645 5642 5641 5639 5637 5635 5632 5630 5627 5624 5621 5619 5616 5613 5609 5606 5603 5600 5597 5595 5593 5589 5585 5582 5579 5577 5574 5572 5569 5565 5561 5557 5551 5546 5542 5538 5536 5534 5534 5534 5535 5537 5539 5544 5551 5557 5564 5569 5575 5581 5586 5591 5596 5601 5606 5612 5616 5620 5624 5628 5633 5637 5641 5646 5651 5655 5659 5663 5668
5674 5673 5671 5670 5667 5665 5663 5662 5660 5658 5657 5655 5653 5652 5650 5648 5647 5644 5642 5640 5638 5636 5634 5631 5628 5626 5623 5619 5616 5613 5610 5606 5603 5601 5599 5595 5591 5588 5586 5583 5580 5578 5575 5573 5571 5568 5563 5559 5555 5550 5546 5543 5540 5537 5536 5535 5535 5536 5538 5541 5545 5552 5558 5563 5568 5573 5578 5584 5589 5594 5599 5604 5609 5613 5617 5620 5623 5627 5632 5637 5642 5647 5651 5655 5659 5664
5673 5672 5670 5669 5667 5664 5662 5661 5659 5658 5656 5654 5653 5652 5650 5648 5646 5645 5642 5640 5638 5636 5634 5631 5627 5624 5621 5618 5615 5612 5608 5605 5601 5599 5597 5594 5590 5586 5582 5579 5578 5577 5575 5572 5569 5566 5562 5558 5554 5550 5547 5545 5543 5541 5540 5538 5538 5538 5539 5542 5546 5551 5557 5562 5567 5571 5576 5582 5587 5591 5596 5601 5606 5610 5613 5616 5619 5623 5628 5633 5639 5644 5648 5652 5655 5660
5672 5671 5669 5667 5666 5664 5662 5660 5659 5657 5655 5654 5652 5651 5649 5647 5645 5644 5642 5640 5638 5635 5632 5629 5626 5623 5620 5617 5615 5612 5608 5604 5601 5598 5595 5592 5589 5584 5580 5578 5577 5576 5574 5571 5568 5565 5561 5558 5554 5551 5548 5546 5545 5544 5543 5542 5541 5541 5541 5543 5546 5551 5556 5561 5565 5570 5574 5579 5584 5589 5593 5598 5602 5606 5609 5612 5616 5620 5624 5628 5634 5639 5643 5647 5651 5655
5670 5669 5667 5666 5664 5663 5661 5660 5658 5656 5654 5653 5651 5650 5648 5646 5644 5643 5640 5639 5637 5634 5631 5628 5625 5622 5620 5617 5614 5612 5609 5605 5601 5599 5596 5593 5590 5587 5582 5579 5577 5576 5574 5571 5568 5565 5562 5559 5556 5553 5550 5549 5549 5547 5546 5545 5544 5544 5544 5545 5548 5551 5555 5560 5564 5568 5572 5577 5581 5586 5590 5594 5598 5602 5605 5608 5612 5616 5619 5623 5627 5631 5636 5640 5644 5649
5669 5667 5666 5665 5663 5661 5660 5659 5657 5656 5654 5652 5650 5649 5647 5645 5644 5642 5640 5638 5636 5634 5631 5628 5624 5621 5618 5616 5613 5610 5608 5606 5602 5600 5597 5594 5591 5588 5584 5581 5578 5576 5573 5571 5568 5565 5563 5560 5558 5556 5553 5551 5551 5549 5548 5548 5547 5547 5547 5549 5550 5553 5556 5560 5564 5568 5571 5575 5579 5583 5587 5591 5595 5598 5601 5604 5607 5610 5613 5616 5619 5622 5627 5632 5637 5642
5667 5666 5665 5663 5661 5660 5659 5657 5656 5654 5653 5651 5649 5648 5646 5644 5643 5641 5639 5638 5635 5633 5630 5627 5624 5621 5618 5615 5612 5608 5606 5603 5601 5598 5595 5592 5589 5585 5582 5580 5578 5575 5573 5570 5568 5565 5563 5561 5559 5558 5555 5553 5552 5550 5549 5549 5549 5549 5550 5552 5554 5556 5559 5562 5565 5567 5570 5573 5577 5581 5584 5588 5591 5594 5597 5599 5601 5604 5606 5610 5614 5618 5622 5628 5633 5638
5666 5665 5663 5662 5660 5659 5658 5657 5655 5653 5651 5650 5648 5647 5645 5644 5642 5640 5638 5637 5635 5632 5629 5626 5623 5620 5617 5614 5611 5607 5604 5600 5598 5595 5593 5590 5587 5583 5579 5577 5575 5573 5571 5569 5567 5565 5563 5562 5560 5559 5557 5556 5554 5552 5551 5551 5551 5552 5553 5554 5556 5558 5560 5563 5565 5568 5570 5573 5576 5579 5582 5585 5588 5591 5594 5596 5598 5601 5604 5608 5613 5617 5621 5625 5629 5633
5665 5664 5663 5661 5660 5658 5657 5656 5654 5653 5651 5649 5648 5646 5645 5643 5641 5639 5637 5636 5634 5631 5628 5626 5623 5620 5617 5613 5610 5607 5603 5600 5597 5594 5591 5588 5585 5582 5578 5576 5573 5571 5569 5568 5567 5566 5564 5562 5561 5560 5558 5557 5556 5554 5553 5553 5553 5554 5555 5556 5557 5559 5561 5564 5566 5568 5571 5573 5575 5578 5580 5583 5586 5588 5591 5594 5596 5600 5604 5607 5611 5615 5619 5621 5624 5628
5664 5663 5662 5660 5659 5657 5656 5654 5653 5652 5650 5649 5647 5646 5644 5642 5641 5639 5637 5635 5633 5630 5628 5625 5622 5620 5616 5613 5610 5607 5603 5600 5597 5594 5591 5588 5585 5582 5579 5576 5574 5572 5570 5568 5567 5566 5565 5563 5562 5561 5560 5559 5558 5556 5555 5555 5555 5556 5557 5558 5559 5561 5562 5564 5566 5568 5570 5572 5574 5576 5578 5581 5584 5586 5589 5591 5593 5596 5600 5603 5607 5611 5615 5618 5620 5624
5663 5662 5660 5659 5658 5656 5655 5653 5652 5651 5649 5648 5647 5645 5644 5642 5640 5638 5636 5634 5631 5629 5627 5624 5622 5619 5616 5613 5610 5607 5604 5600 5597 5594 5591 5588 5585 5582 5579 5576 5573 5571 5570 5568 5567 5566 5565 5564 5563 5562 5560 5560 5559 5558 5557 5556 5556 5557 5558 5559 5560 5561 5563 5564 5565 5567 5568 5570 5572 5573 5575 5577 5579 5582 5584 5586 5588 5591 5595 5598 5602 5606 5610 5613 5617 5620
5661 5660 5659 5658 5657 5655 5653 5652 5651 5649 5648 5647 5645 5644 5643 5641 5639 5637 5635 5633 5631 5628 5626 5624 5621 5619 5616 5613 5610 5607 5604 5601 5598 5595 5592 5588 5585 5582 5579 5576 5573 5571 5570 5568 5567 5566 5565 5564 5563 5562 5561 5560 5560 5559 5558 5557 5557 5558 5559 5560 5561 5562 5563 5564 5566 5567 5568 5569 5570 5571 5572 5573 5574 5575 5578 5580 5583 5586 5589 5593 5597 5601 5605 5608 5612 5616
5660 5659 5658 5656 5655 5654 5652 5651 5649 5648 5647 5645 5644 5643 5641 5639 5637 5635 5633 5631 5629 5627 5625 5623 5621 5618 5615 5613 5610 5607 5605 5602 5598 5595 5592 5589 5586 5583 5580 5577 5574 5572 5570 5568 5567 5566 5565 5564 5564 5563 5562 5561 5561 5560 5558 5558 5558 5559 5560 5561 5562 5564 5564 5565 5566 5567 5567 5568 5569 5569 5570 5570 5571 5571 5572 5575 5578 5581 5585 5589 5592 5596 5600 5603 5608 5612
5659 5657 5656 5655 5654 5652 5651 5649 5648 5646 5645 5644 5643 5641 5639 5637 5635 5634 5632 5630 5628 5626 5624 5622 5620 5617 5615 5612 5610 5607 5605 5602 5599 5596 5593 5590 5587 5584 5581 5578 5575 5572 5570 5568 5567 5566 5565 5564 5564 5563 5562 5562 5561 5560 5559 5558 5559 5560 5561 5562 5563 5564 5564 5565 5565 5566 5566 5567 5567 5568 5568 5568 5568 5568 5568 5570 5573 5577 5581 5585 5588 5591 5595 5598 5603 5608
5657 5656 5655 5653 5652 5650 5649 5648 5646 5645 5643 5642 5640 5639 5637 5635 5634 5632 5630 5629 5627 5625 5623 5621 5619 5617 5614 5612 5609 5607 5604 5602 5600 5597 5593 5590 5587 5585 5582 5579 5576 5573 5571 5569 5567 5565 5564 5563 5563 5562 5562 5562 5561 5561 5560 5560 5559 5560 5561 5562 5562 5562 5562 5563 5563 5564 5565 5565 5565 5565 5565 5564 5563 5563 5564 5567 5570 5573 5576 5580 5584 5588 5591 5595 5598 5603
5656 5655 5653 5652 5650 5649 5647 5646 5645 5643 5641 5640 5638 5636 5635 5633 5632 5631 5629 5628 5626 5624 5622 5620 5618 5616 5614 5611 5609 5607 5604 5602 5599 5597 5594 5591 5588 5585 5582 5580 5577 5574 5571 5569 5567 5565 5564 5563 5562 5562 5562 5561 5561 5560 5561 5560 5559 5559 5560 5560 5560 5560 5561 5562 5562 5562 5563 5563 5563 5562 5561 5560 5559 5559 5561 5564 5566 5569 5572 5575 5579 5584 5587 5590 5594 5598
5655 5653 5652 5651 5649 5647 5646 5645 5643 5642 5640 5638 5636 5635 5633 5632 5631 5629 5628 5626 5625 5623 5621 5619 5617 5615 5613 5611 5609 5606 5604 5602 5599 5597 5594 5592 5589 5586 5583 5581 5578 5575 5572 5569 5567 5565 5564 5562 5562 5561 5561 5560 5560 5559 5560 5559 5558 5557 5558 5559 5559 5559 5560 5561 5561 5561 5561 5561 5561 5560 5559 5559 5559 5558 5559 5561 5564 5566 5569 5572 5575 5579 5582 5584 5588 5594
5653 5652 5650 5649 5648 5646 5645 5643 5642 5640 5639 5637 5635 5634 5632 5631 5630 5628 5627 5625 5623 5622 5620 5618 5616 5614 5613 5611 5608 5606 5604 5602 5599 5597 5594 5592 5589 5587 5584 5582 5579 5576 5573 5571 5568 5566 5564 5562 5561 5560 5559 5559 5559 5558 5558 5558 5557 5556 5556 5557 5558 5559 5560 5561 5561 5560 5560 5560 5560 5559 5558 5559 5559 5559 5559 5560 5563 5566 5568 5570 5573 5576 5579 5582 5586 5590